User: anonymous   Login
Location: �terpigny
(49.8910°N, 2.9249°E)
Time: 23:27:35
(UTC+00:00)
Language:

Cosmos 1892 - Orbit

View from above orbital plane
View from above orbital plane
View from above satellite
View from above satellite

Ground track
Ground track

The orbit data is extracted from the following two-line orbital elements,

1 18421U 87088A   22026.55782486  .00001698  00000-0  81152-4 0  9999
2 18421  82.4980  51.1089 0014657 175.8577 184.2781 15.18247141873740
Epoch (UTC): 26 January 2022 13:23:16
Eccentricity: 0.0014657
inclination: 82.4980°
perigee height: 501 km
apogee height: 521 km
right ascension of ascending node: 51.1089°
argument of perigee: 175.8577°
revolutions per day: 15.18247141
mean anomaly at epoch: 184.2781°
orbit number at epoch: 87374

The dashed part of the orbit path shows where the satellite is in the earth's shadow,  

DLR